Location: *
(51.5000°N, 0.1100°W)
Time: 17:52:49
(UTC+00:00)

Cosmos 2360 Rocket - Pass Details

Date: 25 May 2024
Orbit: 832 x 846 km, 71.0° (Epoch: 16 June)

Event Time Altitude Azimuth Distance (km) Brightness Sun altitude
Rises 03:08:32 0° 322° (NW) 3,417 5.5 -6.3°
Reaches altitude 10° 03:11:25 10° 309° (NW) 2,478 4.6 -6.0°
Maximum altitude 03:15:49 24° 258° (WSW) 1,702 3.3 -5.5°
Drops below altitude 10° 03:20:12 10° 207° (SSW) 2,463 4.0 -5.0°
Sets 03:23:04 0° 193° (SSW) 3,392 4.8 -4.7°
